Location: Krakow
(50.0830°N, 19.9170°E)
Time: 06:26:16
(UTC+02:00)

Tiros 1 despin weight - Pass Details

Date: 22 March 2026
Orbit: 555 x 592 km, 48.2° (Epoch: 18 April)

Event Time Altitude Azimuth Distance (km) Brightness Sun altitude
Rises 02:40:23 0° 229° (SW) 2,816 - -27.4°
Reaches altitude 10° 02:42:47 10° 221° (SW) 1,916 - -27.1°
Maximum altitude 02:46:49 36° 155° (SSE) 938 - -26.5°
Exits shadow 02:47:58 31° 121° (ESE) 1,053 ? -26.4°
Drops below altitude 10° 02:50:51 10° 88° (E) 1,914 ? -26.0°
Sets 02:53:15 0° 80° (E) 2,811 ? -25.7°
